Location: Alafon
(8.4500°N, 4.2333°E)
Time: 02:58:08
(UTC+00:00)

Vanguard 2 - Pass Details

Date: 06 August 2021
Orbit: 552 x 2937 km, 32.9° (Epoch: 21 September)

Event Time Altitude Azimuth Distance (km) Brightness Sun altitude
Rises 19:05:11 0° 208° (SSW) 6,527 12.4 -15.6°
Reaches altitude 10° 19:14:20 10° 181° (S) 5,004 11.5 -17.7°
Maximum altitude 19:18:53 12° 162° (SSE) 4,490 11.1 -18.7°
Enters shadow 19:21:12 11° 151° (SSE) 4,350 10.9 -19.3°
Drops below altitude 10° 19:22:54 10° 142° (SE) 4,314 - -19.7°
Sets 19:29:01 0° 114° (ESE) 4,701 - -21.1°
